Theta_e
320 322 322 323 324 324 325 327 328 329 330 330 330 328 328 327 325 321 318 325 325 327 322 313 314 311 311 309 309 312 306 304 302 301 302 308 307 307 309 312 315 317 316 322 332
319 321 322 323 324 323 323 325 327 328 329 329 329 328 327 325 320 317 326 330 330 326 321 317 313 308 309 306 307 313 302 306 306 306 304 306 308 308 307 311 310 314 321 328 331
319 320 321 323 322 323 323 324 326 326 327 328 328 327 326 324 315 316 328 329 332 324 322 314 315 307 306 309 307 305 308 306 305 303 304 303 304 307 306 307 311 312 319 324 327
318 319 320 321 322 323 322 322 323 326 327 328 328 326 323 322 302 314 329 330 332 320 318 318 309 305 302 306 310 306 306 305 302 304 302 303 304 303 306 310 309 315 322 326 326
317 318 319 321 321 322 322 322 322 319 326 327 327 325 319 309 311 313 320 330 327 315 310 316 311 307 302 305 305 307 304 305 303 303 302 302 302 303 304 309 308 315 322 325 327
316 316 317 319 320 321 322 322 322 320 325 326 327 323 315 304 318 315 319 325 324 314 311 313 315 311 306 303 301 307 303 302 302 302 302 302 301 301 305 306 309 315 320 323 326
315 316 316 317 319 320 320 322 321 322 324 326 326 321 311 310 316 322 323 321 323 314 310 315 313 313 308 301 305 302 302 304 306 302 301 302 299 300 307 307 308 312 317 322 325
314 315 315 316 317 319 320 321 320 321 318 325 324 318 306 312 317 319 319 315 318 314 314 314 312 311 305 303 300 303 302 298 305 303 300 301 302 306 306 305 307 311 315 319 323
313 313 315 315 316 317 319 319 320 320 318 325 316 312 300 315 309 316 318 313 309 308 311 312 310 305 303 297 295 299 299 299 301 300 299 298 301 305 304 304 305 308 313 317 319
313 313 315 315 315 317 318 319 319 318 316 321 315 304 301 304 309 312 315 313 305 306 305 307 304 302 300 296 296 295 299 294 299 297 296 296 297 301 302 302 304 306 309 314 317
312 311 313 315 314 314 315 314 307 305 306 305 303 305 303 309 312 309 311 309 307 304 298 301 297 296 300 298 303 301 299 298 296 296 295 297 297 299 303 300 302 304 305 309 315
310 309 311 312 313 314 313 305 306 309 298 308 306 302 304 310 302 306 312 304 303 296 297 295 295 303 303 299 298 296 295 294 297 296 296 297 296 299 299 300 302 303 304 305 308
309 309 310 311 311 310 307 306 312 310 301 302 305 299 301 308 301 301 308 303 302 296 295 296 299 299 297 295 294 294 296 295 296 294 295 296 298 301 304 301 300 301 303 305 306
308 308 307 310 304 307 303 309 313 310 288 293 298 299 300 303 298 306 308 304 301 298 299 298 297 297 297 295 297 293 296 295 293 294 292 294 290 299 303 304 301 300 302 302 303
307 306 306 309 304 302 305 312 312 306 279 294 296 303 301 300 297 297 301 300 294 296 298 294 293 295 295 296 299 296 296 295 293 292 290 291 289 295 298 298 301 303 303 303 305
305 305 305 306 307 306 310 311 305 285 280 288 294 292 293 295 296 297 297 299 299 296 297 291 297 298 297 297 300 296 293 293 293 291 286 292 289 292 296 297 300 303 304 304 304
304 304 304 306 298 309 311 302 285 280 286 283 288 291 290 291 292 294 292 291 291 288 290 289 292 294 297 293 294 296 292 285 284 284 284 285 287 293 298 298 298 298 302 303 304
304 305 305 305 307 309 304 290 276 285 285 289 291 291 288 292 292 293 291 290 293 293 291 287 283 291 294 296 291 291 293 288 281 281 286 283 285 292 296 297 296 301 300 298 298
303 302 301 305 308 306 294 281 282 286 288 289 290 287 286 288 291 291 291 291 293 294 290 288 284 290 293 294 294 290 288 293 283 277 282 286 289 294 296 296 296 296 297 299 300
299 297 296 304 308 301 289 284 285 291 292 292 287 290 284 286 288 290 290 295 292 292 295 291 283 288 289 293 292 293 295 286 288 281 279 284 284 289 294 294 296 297 298 299 299
296 290 301 306 305 294 283 285 287 293 296 292 290 290 289 288 291 290 289 293 294 290 292 292 288 284 289 288 290 290 289 290 292 287 283 282 288 294 294 293 294 297 298 298 298
293 284 305 305 290 290 285 287 290 290 295 293 295 293 291 291 290 291 290 292 294 291 290 291 287 282 285 288 290 294 291 291 287 282 287 283 287 293 294 294 295 296 297 298 298
289 289 305 303 284 285 288 288 290 290 293 292 290 293 294 291 288 290 291 293 295 293 291 290 286 281 282 286 288 288 288 293 288 288 283 285 289 294 292 294 296 296 298 298 298
290 284 292 297 294 288 285 286 286 294 291 293 292 294 292 290 293 287 289 291 295 295 295 294 287 286 281 285 288 284 287 292 290 286 286 288 291 291 292 293 295 297 297 298 298
289 286 293 286 288 289 288 288 287 288 290 292 291 292 290 286 287 287 289 289 291 295 293 293 285 286 285 287 289 288 286 288 289 290 286 289 289 293 296 296 298 300 298 297 297
286 287 293 290 289 289 289 286 288 288 289 287 289 292 293 289 289 287 289 290 289 291 291 290 285 285 281 286 287 285 288 288 289 290 290 290 290 296 297 298 297 297 296 296 298
291 294 292 291 288 287 287 288 289 291 289 292 293 292 291 293 294 296 295 293 293 291 290 288 284 285 283 284 286 283 286 287 288 291 291 287 291 295 294 294 295 296 296 296 297
Wind_Speed
20 20 20 20 21 21 18 18 19 21 22 21 18 16 16 14 7 4 10 3 5 2 1 3 2 3 1 3 4 2 3 6 5 5 4 7 8 3 2 6 3 4 0 3 18
19 19 19 20 22 23 21 20 19 21 24 22 20 17 18 15 6 11 6 10 8 4 3 7 7 3 4 2 3 5 4 7 4 3 3 7 7 9 6 6 6 6 3 10 16
18 19 19 19 21 20 24 16 19 23 24 22 21 20 20 13 4 11 16 12 9 6 3 1 5 2 5 3 5 5 7 6 5 2 2 4 4 3 5 7 9 13 13 15 18
16 17 17 19 21 24 19 17 18 23 23 24 22 23 21 15 12 3 13 19 15 11 7 5 5 6 4 7 6 5 5 5 3 3 3 4 4 4 8 5 4 6 16 18 19
13 10 11 16 18 22 21 21 22 11 24 26 25 23 13 9 12 5 6 14 17 14 9 8 9 9 11 7 6 8 4 4 3 5 1 3 2 3 9 10 4 8 15 20 19
13 8 7 13 16 19 22 19 16 15 24 27 27 25 10 17 5 5 10 17 16 17 15 13 12 5 4 4 5 6 4 4 3 1 3 3 2 2 2 2 5 9 16 17 21
12 11 6 7 14 17 17 22 19 20 20 27 28 18 13 19 6 11 17 11 15 14 18 12 8 18 7 4 5 5 7 3 4 5 3 4 4 8 7 5 8 10 12 14 17
11 10 9 7 8 14 17 22 15 17 13 25 29 13 6 4 10 14 14 11 13 8 11 8 8 6 4 5 4 9 4 5 5 8 3 6 15 11 8 9 11 12 11 12 15
11 9 10 10 8 9 16 15 20 16 8 28 18 12 7 9 12 13 16 17 12 5 5 5 4 4 3 8 4 7 8 14 6 7 3 8 10 14 6 11 12 13 12 12 13
11 8 11 13 9 9 10 15 16 9 7 16 10 9 2 20 10 13 10 20 7 7 5 5 4 9 6 9 14 9 13 4 11 4 5 7 14 9 6 10 14 12 12 13 14
11 8 10 13 11 8 7 5 7 7 8 9 20 8 16 14 13 10 19 16 13 4 9 6 11 19 20 14 6 7 10 12 4 1 4 11 16 14 12 10 11 12 12 13 16
12 9 8 9 10 9 7 5 2 4 10 17 20 4 8 23 12 17 23 14 16 11 12 7 16 15 12 11 9 9 10 6 3 1 3 8 17 14 14 13 16 14 13 14 13
9 7 7 8 6 6 9 13 3 1 5 14 15 10 14 18 14 20 25 12 19 17 18 16 9 16 13 9 11 5 12 7 4 1 2 9 21 23 17 14 14 15 14 12 15
10 7 3 8 3 7 13 13 6 5 4 13 16 9 6 18 8 16 15 14 9 23 18 7 10 17 16 17 16 13 6 6 4 4 8 2 9 15 9 17 17 16 17 18 16
11 10 8 14 3 11 5 11 10 2 10 16 12 6 3 15 23 14 4 3 16 15 11 10 17 20 20 20 16 8 10 8 5 7 5 8 9 9 7 13 18 19 19 18 17
11 13 13 9 10 8 6 11 6 9 10 11 11 13 13 7 11 16 8 6 7 15 3 4 4 12 10 12 17 17 12 9 4 3 9 14 11 7 11 13 14 16 17 19 17
13 16 13 9 10 11 5 7 10 10 3 8 17 23 18 12 14 26 22 18 15 16 16 7 7 3 10 17 9 14 18 5 5 6 7 1 9 14 15 13 8 13 12 13 15
15 14 12 10 8 7 10 8 8 9 7 5 22 25 12 23 15 23 23 18 10 9 17 17 9 13 6 19 12 11 15 6 9 6 2 2 12 5 6 9 10 12 13 8 9
10 5 5 9 11 10 10 14 7 4 10 15 30 25 10 5 14 19 25 25 12 14 11 15 5 4 7 6 15 12 12 6 6 2 2 6 7 12 12 17 7 10 10 12 10
2 3 10 12 13 10 9 17 7 7 13 30 25 23 15 14 19 21 26 24 17 8 2 11 9 4 5 6 1 12 13 6 4 5 6 6 7 10 11 6 6 6 7 8 8
2 4 6 16 11 10 11 8 12 12 22 25 25 20 23 33 27 31 36 15 18 13 4 10 5 7 8 9 16 10 12 4 4 5 3 4 6 5 6 2 3 8 9 9 10
3 7 6 18 15 11 10 9 5 16 23 6 16 14 28 33 20 21 28 12 19 16 15 3 7 8 15 3 3 13 14 16 7 5 6 2 11 5 6 5 4 5 6 8 8
5 5 8 15 16 11 8 7 8 22 25 15 13 10 23 24 13 10 11 8 24 22 18 9 5 9 5 4 1 14 5 17 3 2 8 7 10 4 6 5 3 4 4 5 4
4 8 7 12 13 16 8 19 9 30 14 14 14 15 25 19 9 14 17 7 21 24 9 9 5 9 14 11 15 16 22 23 17 7 7 18 20 5 7 7 6 6 3 4 4
6 5 6 11 20 22 17 17 23 22 3 11 11 31 33 18 10 14 14 13 7 12 4 7 6 4 3 6 12 21 20 20 25 28 17 25 23 21 19 17 19 13 9 6 6
6 5 4 9 16 27 27 20 31 20 15 14 21 38 30 24 15 34 22 17 20 12 14 3 4 5 3 2 6 5 18 24 29 25 23 23 28 8 11 16 17 16 11 11 10
5 3 3 19 22 19 16 27 34 29 4 7 32 34 26 18 15 20 14 12 20 22 20 12 7 7 6 2 6 2 27 26 24 25 30 21 33 4 9 10 12 12 11 13 10
Wind_Direction
245 236 232 234 220 216 229 233 218 210 187 175 174 163 149 143 129 176 220 186 178 164 173 125 65 86 118 121 114 232 44 220 188 184 136 159 188 157 96 132 199 169 261 60 141
242 236 232 229 225 208 220 230 223 217 199 177 174 153 142 139 171 216 177 168 150 182 216 180 153 143 164 128 119 179 153 232 212 202 156 174 218 161 174 159 195 178 131 135 148
235 229 230 227 228 209 213 221 229 214 206 179 166 151 141 150 193 235 180 183 165 156 184 133 130 157 172 174 181 185 210 197 213 204 149 154 196 186 185 204 204 203 164 162 167
224 224 228 227 219 207 208 213 233 224 207 179 165 153 148 172 206 149 189 174 156 150 155 135 101 184 174 194 181 196 193 174 122 140 143 165 127 198 229 243 337 193 162 164 180
216 220 221 223 228 214 209 207 221 264 212 188 165 155 142 188 221 146 175 178 161 160 161 147 165 179 193 199 155 232 168 195 124 136 117 145 163 274 245 245 337 162 164 177 190
203 204 209 228 220 216 215 212 200 241 228 193 164 152 169 205 142 148 164 162 178 169 174 159 194 174 174 201 207 192 168 120 161 163 208 238 131 230 202 184 191 195 189 188 195
195 196 202 223 228 218 215 214 208 237 233 192 163 166 189 189 158 144 141 173 178 176 173 176 168 173 163 133 192 138 188 235 196 172 207 188 214 226 251 177 194 211 217 205 201
199 179 201 199 232 224 214 214 199 210 267 190 167 179 181 144 141 146 142 131 168 171 181 163 167 163 191 146 146 189 210 223 217 187 187 215 246 242 211 204 211 213 215 214 210
201 198 205 200 211 237 213 198 191 197 235 182 169 188 180 136 162 160 153 152 151 139 142 141 118 134 137 159 152 186 200 215 223 214 174 210 255 241 207 219 223 211 211 217 222
206 202 211 204 191 220 219 205 202 173 224 178 152 148 178 188 143 150 160 145 134 115 101 154 131 183 170 192 199 173 210 205 222 157 206 209 245 260 220 224 236 224 209 219 222
193 197 207 201 192 202 204 204 183 185 208 219 154 169 145 138 128 163 148 139 126 141 169 176 179 200 188 200 249 204 206 223 191 160 229 241 259 243 235 235 239 233 225 220 231
181 179 200 213 206 215 201 225 198 124 223 203 164 49 139 142 136 159 161 152 161 163 138 151 215 197 171 166 148 169 186 201 201 233 264 266 270 266 256 246 247 241 230 228 222
188 183 207 216 233 216 211 229 171 322 284 177 164 156 164 154 152 170 173 148 172 164 180 176 170 157 160 158 152 168 201 172 233 359 239 297 279 263 243 243 244 248 244 238 232
181 187 233 189 212 211 219 216 187 89 244 160 169 172 157 129 132 162 175 142 164 187 180 210 154 168 177 186 187 197 183 173 187 275 259 333 281 265 256 240 228 233 234 227 224
190 198 220 214 212 195 156 177 136 167 233 172 137 118 203 167 133 198 171 104 159 163 175 166 167 176 182 187 186 200 158 174 146 211 271 224 268 262 267 254 240 234 231 229 219
193 217 228 235 237 240 169 127 112 227 214 160 133 138 155 218 151 146 161 79 124 137 151 111 155 175 170 159 183 136 123 95 108 188 256 245 225 235 244 257 248 246 239 234 229
212 221 233 225 227 208 188 135 224 221 138 162 140 145 154 159 131 163 168 156 159 149 175 134 154 141 158 139 156 167 158 149 204 208 246 73 221 255 282 252 251 272 268 245 244
213 227 242 241 220 233 181 194 217 159 177 204 145 139 156 147 154 172 162 172 183 169 154 169 186 179 168 173 167 175 177 173 192 200 215 100 237 239 279 279 281 267 264 270 266
236 244 241 228 205 203 178 223 202 219 142 147 147 149 131 143 132 164 187 180 175 176 157 170 136 143 174 149 148 176 207 117 102 32 246 216 264 263 259 281 237 264 285 269 255
201 229 236 221 187 190 204 208 220 194 148 154 163 156 144 160 137 182 181 191 180 173 157 160 118 211 143 122 68 202 141 169 202 203 238 228 270 246 279 352 343 293 284 273 258
188 230 202 183 172 206 206 200 215 246 169 165 164 167 167 162 170 182 184 171 168 165 132 148 102 154 164 205 182 157 184 188 174 203 234 291 257 217 239 226 299 305 320 322 312
196 215 201 163 195 194 213 170 219 188 213 157 164 175 166 165 166 171 186 167 155 145 151 134 107 144 180 42 278 193 191 183 188 179 245 346 262 173 186 199 239 281 295 316 315
208 201 202 173 193 185 159 172 207 186 188 164 156 185 157 169 144 170 152 153 160 168 163 164 116 109 170 215 287 208 192 198 143 136 196 183 257 142 197 210 228 277 345 330 287
261 187 222 203 182 188 159 190 195 191 175 179 154 133 150 173 140 149 156 148 179 173 150 123 151 160 184 186 155 191 198 199 195 208 182 223 241 192 202 220 252 305 259 281 256
211 229 195 195 183 180 169 192 176 177 233 163 146 158 163 154 132 158 142 128 164 169 122 143 146 111 55 149 163 187 187 188 203 223 208 242 240 242 254 288 292 288 294 280 242
202 206 206 187 157 179 177 202 167 166 182 173 161 166 168 175 181 169 157 154 167 178 169 191 149 127 125 136 161 144 190 196 209 220 234 244 260 251 260 244 262 278 280 267 263
205 244 239 182 169 173 181 174 173 169 250 194 156 158 178 175 128 149 137 123 153 162 178 171 137 144 190 140 124 270 210 198 211 212 219 226 241 188 239 250 251 261 246 251 255